Home > Weather > Limassol > Past weeks

Flag for Cyprus Past Weather in Limassol, Cyprus — Yesterday and Last 2 Weeks

Now
81 °F

Sunny.


Feels Like: 81 °F
Forecast: 66 / 91 °F
Wind: 14 mph from West

Location: Akrotiri

Current Time: Jun 27, 2016 at 7:17:19 AM

Latest Report: Jun 27, 2016 at 6:50 AM


Visibility: 10 mi

Pressure: 29.74 "Hg

Humidity: 45%

Dew Point: 57 °F

Location of LimassolLocation

Past Weather in Limassol — Graph

°F

Limassol Temperature Yesterday

Maximum temperature yesterday: 91 °F (at 1:50 PM)
Minimum temperature yesterday: 79 °F (at 12:50 AM)
Average temperature yesterday: 85 °F

High & Low Weather Summary for the Past Weeks

 TemperatureHumidityPressure
High100 °F (Jun 20, 9:50 AM)100% (Jun 23, 3:50 AM)29.98 "Hg (Jun 23, 3:50 AM)
Low64 °F (Jun 12, 5:50 AM)16% (Jun 14, 5:50 PM)29.62 "Hg (Jun 24, 7:50 PM)
Average83 °F58%29.76 "Hg
* Reported Jun 12 5:50 AM — Jun 27 5:50 AM, Limassol, Weather by CustomWeather, © 2016

Note: Actual official high and low records may vary slightly from our data, if they occured in-between our weather recording intervals... More about our weather records

Advertising

Limassol Weather History for the Previous 24 Hours

Scroll right to see more
 ConditionsComfort  
Time TempWeatherWind HumidityBarometerVisibility
5:50 AM
Mon, Jun 27
79 °FClear.14 mph54%29.74 "Hg10 mi
4:50 AM79 °FClear.14 mph61%29.74 "Hg10 mi
3:50 AM81 °FClear.14 mph48%29.74 "Hg10 mi
2:50 AM79 °FClear.17 mph61%29.74 "Hg10 mi
1:50 AM79 °FClear.17 mph61%29.74 "Hg10 mi
12:50 AM81 °FClear.17 mph58%29.74 "Hg10 mi
11:50 PM
Sun, Jun 26
81 °FClear.16 mph58%29.77 "Hg10 mi
10:50 PM81 °FClear.15 mph58%29.77 "Hg10 mi
9:50 PM86 °FClear.14 mph40%29.77 "Hg10 mi
8:50 PM86 °FSunny.8 mph46%29.74 "Hg10 mi
7:50 PM86 °FSunny.7 mph52%29.74 "Hg10 mi
6:50 PM90 °FSunny.9 mph49%29.74 "Hg10 mi
5:50 PM88 °FSunny.5 mph59%29.74 "Hg10 mi
4:50 PM90 °FSunny.7 mph52%29.74 "Hg10 mi
3:50 PM90 °FSunny.8 mph49%29.74 "Hg10 mi
2:50 PM90 °FPassing clouds.12 mph49%29.77 "HgN/A
1:50 PM91 °FPassing clouds.10 mph44%29.77 "HgN/A
12:50 PM88 °FPassing clouds.7 mph55%29.77 "HgN/A
11:50 AM88 °FPassing clouds.10 mph49%29.77 "HgN/A
10:50 AM90 °FPassing clouds.8 mph49%29.80 "HgN/A
9:50 AM88 °FSunny.8 mph59%29.77 "Hg10 mi
8:50 AM86 °FSunny.8 mph62%29.77 "Hg10 mi
7:50 AM84 °FSunny.8 mph62%29.74 "Hg10 mi
Weather by CustomWeather, © 2016

See weather overviewHow to use our weather pages